This is the latest recevied weather packets stored in our database for station/object KN6CW-3. If no packets are shown the sender has not sent any weather packets the latest 10 day(s).
| Time | Temp. | Humidity | Pressure | Rain* | Wind** | Luminosity | Snow |
|---|---|---|---|---|---|---|---|
| 1777834900 | 11.67° C | 39% | 1012.6 hPa | 0 mm | - | 951 W/m² | - |
| 1777834599 | 11.67° C | 39% | 1012.7 hPa | 0 mm | - | 900 W/m² | - |
| 1777834299 | 11.11° C | 39% | 1012.6 hPa | 0 mm | - | 935 W/m² | - |
| 1777833999 | 11.11° C | 38% | 1012.8 hPa | 0 mm | - | 921 W/m² | - |
| 1777833699 | 11.11° C | 39% | 1012.8 hPa | 0 mm | - | 960 W/m² | - |
| 1777833398 | 11.11° C | 40% | 1012.8 hPa | 0 mm | - | 802 W/m² | - |
| 1777833098 | 11.11° C | 39% | 1012.9 hPa | 0 mm | - | 334 W/m² | - |
| 1777832798 | 10.56° C | 40% | 1013 hPa | 0 mm | - | 745 W/m² | - |
| 1777832497 | 10.56° C | 41% | 1013 hPa | 0 mm | - | 1074 W/m² | - |
| 1777832197 | 11.11° C | 40% | 1013.1 hPa | 0 mm | - | 712 W/m² | - |
| 1777831897 | 10.56° C | 40% | 1012.9 hPa | 0 mm | - | 900 W/m² | - |
| 1777831596 | 10.56° C | 42% | 1013 hPa | 0 mm | - | 1056 W/m² | - |
| 1777831296 | 10° C | 42% | 1013 hPa | 0 mm | - | 1116 W/m² | - |
| 1777830996 | 10° C | 40% | 1013 hPa | 0 mm | - | 1044 W/m² | - |
| 1777830696 | 10° C | 39% | 1013.1 hPa | 0 mm | - | 297 W/m² | - |
| 1777830396 | 10.56° C | 39% | 1013.2 hPa | 0 mm | - | 299 W/m² | - |
| 1777830095 | 10.56° C | 39% | 1013.2 hPa | 0 mm | - | 1107 W/m² | - |
| 1777829494 | 11.11° C | 40% | 1013.1 hPa | 0 mm | - | 1169 W/m² | - |
| 1777829194 | 11.11° C | 38% | 1013.1 hPa | 0 mm | - | 1243 W/m² | - |
| 1777828894 | 11.11° C | 37% | 1013.2 hPa | 0 mm | - | 1021 W/m² | - |
| 1777828594 | 10.56° C | 42% | 1013.2 hPa | 0 mm | - | 912 W/m² | - |
| 1777828293 | 9.44° C | 43% | 1013.3 hPa | 0 mm | - | 1132 W/m² | - |
| 1777827993 | 9.44° C | 39% | 1013.3 hPa | 0 mm | - | 350 W/m² | - |
| 1777827693 | 9.44° C | 40% | 1013.2 hPa | 0 mm | - | 267 W/m² | - |
| 1777827392 | 10° C | 38% | 1013.3 hPa | 0 mm | - | 1137 W/m² | - |
* Rain latest hour (hover to see other rain measurements)
** Current wind speed in m/s (hover to see current wind gust speed)